Terminal Aerodrome Forecast
Issued by NWS

Home | Current Version | Previous Version | Text Only | Print | Product List | Glossary On
Versions: 1 2 3 4 5 6 7 8 9 10 11 12 13 14 15 16 17
000
FTUS44 KCRP 011700
TAFALI
TAF
KALI 011736Z 0118/0218 16010KT P6SM SCT030
     FM020200 14010KT P6SM FEW015
     FM020600 14006KT P6SM FEW010
      TEMPO 0208/0212 3SM BR BKN010
     FM021500 15012KT P6SM SCT030=

USA.gov is the U.S. government's official web portal to all federal, state and local government web resources and services.